Location: Columbus
(29.5618°N, 96.6770°W)
Time: 12:10:57
(UTC-06:00)

Daily predictions for brighter satellites

Satellite Brightness Start Highest point End
(mag) Time Altitude Azimuth Time Altitude Azimuth Time Altitude Azimuth
COSMOS 2441 4.4 18:13:42 10° SSE 18:18:32 68° ENE 18:23:21 10° N
Cosmos 2278 Rocket 2.8 18:13:48 10° N 18:18:58 35° ENE 18:24:05 10° SE
Cosmos 1461 3.3 18:16:50 10° S 18:20:54 43° ESE 18:24:51 10° NE
Atlas Centaur 2 3.2 18:16:43 10° W 18:21:59 39° SSW 18:26:11 10° SE
Cosmos 2058 3.0 18:20:17 10° S 18:24:18 56° E 18:28:20 10° NNE
Centaur AC-119 2.9 18:24:03 10° SW 18:25:43 23° SSE 18:28:22 10° E
CZ-4 R/B 4.5 18:21:44 10° SSE 18:25:53 88° WSW 18:30:02 10° NNW
ATLAS 5 CENTAUR R/B 4.5 18:20:03 10° WSW 18:26:34 45° S 19:09:29 10° ESE
OTV 4 1.6 18:25:12 10° NW 18:27:49 28° NNE 18:30:15 11° ENE
Cosmos 1340 Rocket 3.0 18:25:04 10° S 18:28:53 49° E 18:32:41 10° NNE
Aureole 2 Rocket 2.5 18:25:37 10° SSW 18:29:07 87° ESE 18:32:59 10° NNE
Cosmos 1844 3.8 18:25:33 10° NNW 18:31:22 85° ENE 18:37:09 10° SSE
SL-14 R/B 3.5 18:28:37 10° S 18:32:29 75° W 18:36:27 10° N
Cosmos 1726 2.1 18:29:25 10° N 18:33:10 68° E 18:36:55 10° SSE
YAOGAN 1 3.7 18:31:24 10° S 18:35:35 48° W 18:39:46 10° NNW
Cosmos 1484 Rocket 2.7 18:32:29 10° SSE 18:36:22 85° ENE 18:40:20 10° N
Cosmos 2237 Rocket 3.0 18:31:46 10° SW 18:37:13 53° WNW 18:42:44 10° N
Resurs 01 Rocket3.818:40:44NE18:40:44NE18:34:27ESE
COSMO-SKYMED 1 3.0 18:37:20 10° N 18:41:38 64° WNW 18:45:55 10° SSW
Tiangong 1 3.3 18:40:34 10° SSE 18:41:40 12° SE 18:42:43 10° ESE
Cosmos 1300 2.7 18:39:21 10° N 18:43:11 87° W 18:47:00 10° S
SL-16 R/B 2.2 18:37:47 10° S 18:43:21 67° ESE 18:48:58 10° NNE
ALOS 3.7 18:41:36 10° ESE 18:44:27 16° ENE 18:47:18 10° NNE
Cosmos 1356 Rocket 3.7 18:43:03 10° SSE 18:46:48 40° E 18:50:32 10° NNE
Cosmos 1666 Rocket 4.0 18:43:00 10° SSE 18:47:00 38° E 18:51:02 10° NNE
OAO 3 Rocket 4.1 18:44:04 10° WNW 18:48:48 50° SSW 18:53:27 10° SE
Milstar 3 3.1 18:48:04 10° W 18:54:45 63° SSW 19:02:07 10° ESE
BREEZE-M DEB (TANK) 2.2 18:50:34 10° NW 18:55:20 81° SW 18:58:01 10° SE
Hubble Space Telescope 2.9 18:53:24 10° WSW 18:56:41 23° SSW 18:59:58 10° SSE
Cosmos 372 Rocket 3.8 18:51:59 10° N 18:57:04 70° ENE 19:02:08 10° SSE
Aureole 1 Rocket 4.0 18:53:02 10° SSE 18:57:22 39° E 19:02:59 10° NNE
Cosmos 2297 4.2 18:55:14 10° N 19:00:28 36° ENE 19:05:41 10° SE
Cosmos 2279 Rocket 4.0 18:58:00 10° N 19:04:14 90° W 19:10:28 10° S
FREGAT/IRIS 2.8 19:04:58 10° SSE 19:07:54 47° ENE 19:10:52 10° N
USA 215 3.8 19:05:31 20° E 19:09:25 37° NE 19:15:18 10° NNW
Lacrosse 5 rocket 1.8 19:09:31 10° NNW 19:13:06 34° NE 19:13:10 34° NE
Timation 1 Rocket 4.4 19:10:02 10° N 19:15:57 57° ENE 19:21:49 10° SE
Nadezhda 4 Rocket 3.9 19:11:11 10° S 19:17:24 82° E 19:23:43 10° N
Cosmos 1470 Rocket 4.2 19:15:49 10° SSE 19:19:10 33° ESE 19:19:10 33° ESE
FENGYUN 3A 3.8 19:19:51 10° SE 19:24:56 46° ENE 19:30:03 10° N
METEOR-M 4.4 19:27:05 10° S 19:32:25 71° WSW 19:37:45 10° NNW
FengYun 1-2 T 4.2 19:27:24 10° SSE 19:32:53 60° ENE 19:38:20 10° N
SJ-6B 3.3 19:31:44 10° S 19:35:42 62° W 19:39:45 10° NNW
Cosmos 1092 Rocket 3.9 19:30:28 10° S 19:36:46 84° E 19:43:08 10° N
Spot 2 Rocket 3.4 19:32:27 10° SSE 19:37:23 58° ENE 19:42:20 10° N
Sich 1 4.4 19:40:59 10° SSW 19:45:08 39° W 19:49:18 10° NNW
Cosmos 1626 4.4 19:42:56 10° SW 19:46:02 24° W 19:49:09 10° NNW
Cosmos 1603 3.5 19:42:08 10° SSW 19:47:45 85° ESE 19:49:22 49° NNE
Helios 1B rocket 3.5 19:50:43 35° S 19:50:43 35° S 19:53:11 10° S
USA 229 DEB 3.9 19:43:44 10° SW 19:50:31 67° WNW 19:54:38 26° NNE
USA 229 3.9 19:43:50 10° SW 19:50:37 68° WNW 19:54:41 26° NNE
Cosmos 1633 Rocket 4.4 19:47:07 10° SSW 19:51:13 38° W 19:55:20 10° NNW
Cosmos 1900 4.4 19:48:15 10° NNW 19:52:30 64° N 19:52:30 64° N
Cosmos 923 Rocket 4.1 19:52:08 10° SSW 19:57:19 71° WNW 19:58:38 49° N
Iridium 4 Rocket 3.9 19:54:24 10° SSW 19:59:01 52° W 20:01:17 26° NNW
Cosmos 1455 3.4 19:55:58 10° NNW 19:59:32 40° W 20:03:07 10° SSW
Cosmos 2278 Rocket 4.5 19:58:21 10° NW 20:02:46 24° WSW 20:07:09 10° SSW
Cosmos 2195 Rocket 4.3 19:56:54 10° S 20:02:59 88° E 20:04:46 49° N
OTV 4 3.7 20:01:06 10° WNW 20:01:32 13° WNW 20:01:32 13° WNW
Cosmos 1680 Rocket 3.5 19:59:48 10° SSW 20:04:45 77° WSW 20:04:45 77° WSW
Intelsat 5-1 Rocket 3.5 20:07:38 10° WSW 20:10:16 33° SSW 20:10:16 33° SSW
Resurs 01 Rocket 3.6 20:10:25 10° S 20:18:17 14° NNW 20:18:57 10° NNW
ALOS 3.7 20:17:15 10° SSW 20:21:32 36° W 20:25:50 10° NNW
Cosmos 1655 Rocket 4.3 20:15:29 10° S 20:20:35 60° S 20:20:35 60° S
BREEZE-M DEB (TANK) 3.9 20:24:42 10° WSW 20:28:54 72° NW 20:29:35 67° N
USA 215 4.0 20:52:55 49° WSW 20:52:55 49° WSW 20:58:32 10° NW
H-2A ROCKET BODY 4.3 21:09:57 10° W 21:15:30 27° W 21:15:30 27° W
